Wind_Speed
19 20 22 22 22 21 21 21 17 14 14 16 17 16 16 17 21 24 24 21 19 19 20 22 22 22 21 21 20 19 19 18 17 16 16 16 15 14 13 13 12 12 12 13 14 14 14 14 14 13 13 12 12 12 12 13 13 12 13 14 13 13 13 13 11 10 12 13 13 12 13 13 12 12 13 14 14 14 15 15 15 14 13 13 13
20 20 21 23 22 20 20 21 18 15 16 17 17 17 17 19 22 25 24 21 20 19 20 21 21 21 20 19 18 18 17 17 16 16 16 16 15 15 14 13 13 12 12 13 13 14 15 16 16 15 15 14 14 14 14 15 15 15 16 16 14 14 15 14 13 12 11 12 13 13 14 16 14 15 16 16 16 16 16 16 16 15 15 14 14
20 20 20 21 22 21 21 22 20 17 16 16 16 16 18 20 23 25 23 20 20 20 21 21 20 20 19 18 17 17 16 16 16 15 16 16 16 15 15 14 14 14 13 13 14 14 16 16 17 17 17 16 16 16 16 16 17 18 18 17 16 16 16 15 14 14 12 12 13 14 15 17 17 17 17 18 17 17 17 17 17 16 16 16 15
21 22 21 20 21 22 21 21 19 17 16 15 13 13 18 21 23 24 22 21 21 21 22 22 22 21 20 18 17 17 16 16 16 15 16 16 16 15 16 15 15 15 14 14 15 15 16 17 17 17 17 17 17 17 17 17 19 20 19 18 18 17 18 18 17 16 15 14 15 15 16 18 18 18 18 18 19 19 18 18 18 17 17 17 17
22 23 22 21 19 18 19 19 17 16 15 14 12 14 19 21 22 22 22 22 22 22 24 24 23 22 20 19 18 17 17 17 16 16 16 17 16 16 16 16 15 15 15 15 15 16 16 16 17 17 17 17 17 17 18 18 20 21 20 19 19 18 18 19 19 18 17 16 16 17 17 17 18 19 19 19 20 20 20 20 19 19 19 19 19
24 25 24 23 20 17 18 19 17 15 14 14 15 17 20 22 22 22 23 23 23 23 25 25 24 22 20 19 18 18 18 17 17 17 17 17 17 17 17 16 15 15 16 16 16 16 16 16 16 17 18 18 18 18 19 21 21 21 21 20 20 19 18 19 19 19 19 18 17 18 18 18 18 19 20 21 21 21 21 21 20 20 20 20 21
26 26 25 23 20 18 18 19 19 17 15 16 17 18 20 22 22 22 22 23 23 23 24 24 23 22 20 18 17 17 17 17 17 18 18 17 17 17 17 17 16 16 16 16 17 17 17 17 18 19 19 20 19 19 21 22 22 22 22 22 22 21 20 19 18 18 19 19 19 18 19 19 20 20 20 20 22 22 21 21 22 23 23 22 22
25 24 23 22 20 18 18 19 18 17 16 18 19 18 18 20 21 21 21 22 23 22 22 22 21 21 19 18 17 16 17 18 19 19 18 18 18 18 18 18 18 18 18 18 18 18 18 19 19 19 20 20 20 20 20 20 21 22 22 22 23 22 21 20 20 19 19 20 20 20 20 20 21 21 20 19 21 23 23 22 22 23 24 23 23
26 23 21 22 21 18 18 19 18 17 16 17 18 17 17 18 18 19 21 22 22 22 23 23 22 20 18 19 20 18 18 19 19 19 19 19 19 19 19 19 19 19 19 19 19 19 20 20 19 19 20 20 21 21 21 21 21 22 22 22 23 24 24 23 23 22 21 21 21 21 22 22 22 23 23 22 22 23 25 26 25 25 25 26 27
23 21 20 22 23 22 21 21 19 18 17 15 16 16 16 17 18 20 22 23 21 22 23 23 21 19 17 19 20 20 19 20 20 20 20 20 20 20 21 21 21 21 21 20 21 21 21 20 19 19 20 20 21 21 21 22 22 22 23 24 25 25 25 25 24 24 24 24 24 24 24 25 24 25 26 26 26 26 26 27 27 28 29 29 29
20 20 20 21 20 20 22 21 20 20 19 16 16 15 15 16 19 21 23 23 21 21 22 21 20 20 18 19 20 21 21 21 20 20 20 20 21 21 22 22 22 23 23 23 23 23 22 21 20 19 19 20 20 21 22 22 22 23 24 25 26 26 25 25 25 25 25 26 26 26 26 27 27 27 28 28 29 30 30 30 30 31 32 32 33
20 18 18 17 14 14 18 19 19 18 18 18 18 17 17 17 19 20 22 23 23 22 22 21 21 21 21 23 23 23 22 21 20 21 20 20 21 22 23 23 24 25 25 25 24 23 23 22 22 21 20 21 21 22 23 24 24 25 25 26 26 26 26 26 26 27 27 27 27 28 28 28 28 28 29 30 31 32 32 33 34 35 35 36 36
19 17 17 16 15 15 15 17 18 18 19 20 19 19 18 18 18 19 21 23 24 24 23 22 22 23 24 25 25 23 22 21 20 20 20 21 22 23 23 24 25 26 27 26 24 23 23 23 23 23 22 22 23 24 25 26 26 26 26 26 26 26 27 27 28 28 28 28 28 29 29 29 28 28 30 32 33 34 34 35 37 38 39 39 38
17 18 17 15 15 16 16 16 19 20 20 20 19 19 20 19 19 20 20 21 23 24 24 23 22 23 24 24 24 23 23 22 21 21 22 23 24 24 24 25 26 27 27 27 25 25 24 25 25 25 24 23 24 26 26 25 26 26 25 25 24 24 26 27 28 28 28 28 29 30 31 31 31 32 33 34 35 35 36 37 38 39 39 39 40
17 15 16 17 16 16 16 17 19 21 21 20 18 18 19 20 20 21 21 22 23 23 24 23 21 21 22 23 23 23 23 23 22 23 24 25 25 27 27 26 27 28 28 27 27 26 27 27 27 27 26 26 27 28 27 24 24 25 25 25 24 25 26 28 29 30 30 31 32 32 34 34 35 36 36 36 37 36 36 36 37 39 39 39 41
19 12 14 19 18 16 16 16 18 20 20 20 18 19 22 23 21 21 21 22 22 20 20 19 19 20 21 21 23 23 24 25 25 25 27 27 28 29 28 28 28 29 29 28 27 28 29 29 29 28 27 27 28 29 29 28 27 27 27 28 28 29 30 30 30 31 32 33 34 35 37 37 38 39 39 40 41 40 39 38 39 42 44 45 47
18 12 11 14 14 13 14 14 17 19 18 19 20 22 24 22 18 18 18 18 18 18 17 18 20 21 22 23 24 24 25 26 27 28 30 31 31 31 30 29 30 31 30 29 30 31 31 31 29 27 27 28 28 29 30 32 31 30 30 30 31 31 32 32 33 34 35 35 36 37 39 40 42 43 44 45 45 44 42 42 43 46 50 51 51
16 14 13 12 11 12 14 15 17 18 17 19 23 25 23 19 16 17 17 16 18 19 19 20 21 22 22 23 24 25 26 27 28 29 31 32 32 33 32 32 32 31 30 30 30 31 30 28 27 27 28 29 29 30 32 33 33 32 32 32 32 32 33 34 36 37 38 38 39 40 42 44 45 46 47 48 47 47 46 47 48 51 53 53 54
15 16 16 16 15 16 17 17 18 18 19 20 20 20 20 19 17 16 15 16 17 19 20 20 20 21 21 21 22 23 24 25 26 27 27 27 27 27 27 27 28 26 25 25 24 25 25 25 26 27 28 29 30 30 31 33 34 35 34 34 33 33 34 36 37 39 41 42 43 44 46 47 47 48 50 51 51 51 52 52 54 55 56 57 58
14 16 17 18 20 21 21 22 22 23 24 22 19 18 19 20 19 17 17 17 18 18 19 20 21 22 22 21 20 20 21 22 24 24 23 22 21 21 21 22 23 22 21 20 20 21 23 24 25 26 27 28 29 30 31 32 34 36 37 37 38 38 39 39 40 42 43 45 46 47 49 50 51 52 53 54 54 54 54 55 56 57 58 60 61
13 15 16 17 18 19 18 18 20 22 22 20 19 18 18 17 17 17 17 17 18 18 19 21 21 22 23 22 21 20 20 22 23 23 23 23 23 23 24 24 24 23 22 21 21 22 24 25 26 27 27 28 29 31 32 34 36 38 39 40 41 42 42 43 44 45 46 48 49 51 52 53 54 55 55 55 56 57 58 59 60 62 63 65 66
14 15 17 17 17 15 13 12 13 14 14 14 15 15 15 14 15 16 16 17 18 18 19 20 21 21 22 22 22 21 21 22 23 24 24 25 26 26 27 27 27 26 25 24 24 25 27 28 29 29 30 31 32 34 35 37 38 40 41 42 43 44 45 47 48 50 51 52 53 54 55 56 57 58 59 60 61 62 63 64 65 66 67 68 69
14 14 16 18 18 18 17 16 15 14 13 13 14 14 15 15 16 16 17 18 19 19 20 20 20 20 21 21 21 22 23 24 24 25 26 26 27 27 27 28 28 28 28 27 28 28 29 30 31 32 33 34 36 37 39 40 41 43 44 45 46 48 49 51 52 53 55 56 57 57 58 60 61 62 63 64 65 66 67 67 67 67 67 68 69
15 14 15 17 19 19 20 20 19 18 17 17 16 16 16 16 16 18 20 20 21 21 21 21 22 22 22 22 23 24 25 26 27 27 28 28 29 29 29 30 30 30 30 31 31 31 32 32 34 35 36 38 39 41 42 44 45 46 47 48 49 50 51 52 54 55 56 57 58 59 61 62 64 65 66 67 68 69 70 71 71 71 70 70 70
21 20 21 21 21 21 22 22 22 22 21 21 20 20 20 20 20 21 22 22 22 22 22 23 24 24 25 25 26 27 28 28 29 30 30 30 30 30 31 31 32 33 33 34 34 34 35 36 37 38 40 42 43 45 45 46 47 48 49 50 51 51 52 54 55 56 57 59 60 61 63 65 67 68 69 70 72 73 73 74 74 74 73 73 72
26 26 27 27 26 25 24 24 24 24 24 23 23 23 23 24 24 24 25 24 24 24 24 24 25 26 27 28 29 30 30 31 31 32 32 32 32 32 32 33 33 34 35 36 37 38 39 39 40 42 43 44 45 45 46 46 47 49 50 51 52 53 54 56 57 59 60 62 63 64 66 67 69 71 72 73 74 75 75 75 74 74 73 72 71
27 27 27 28 29 30 29 28 27 26 26 25 25 25 26 26 26 26 26 26 26 26 26 26 27 28 29 30 32 32 32 32 33 33 33 33 34 34 34 34 35 35 36 38 39 40 41 42 42 43 43 44 44 45 47 48 49 51 52 53 54 55 57 59 60 62 63 65 66 67 69 70 71 72 72 72 72 72 72 71 70 69 68 66 64
28 28 28 28 29 30 31 30 30 29 28 27 26 26 28 29 29 29 29 28 29 29 29 29 29 30 31 31 32 33 33 33 34 34 34 34 34 34 35 35 36 37 38 39 40 41 41 41 42 42 43 44 46 48 49 51 52 53 54 56 57 59 61 62 64 65 67 68 70 71 72 72 72 72 71 70 68 67 66 65 63 62 60 59 57
29 30 30 29 28 28 28 29 29 29 28 28 29 30 31 31 31 31 31 31 31 31 31 31 31 31 31 31 31 31 32 32 33 33 33 34 35 36 36 37 38 38 39 40 40 41 41 42 43 44 46 48 49 51 52 54 55 56 58 59 61 63 65 66 68 69 71 72 72 73 73 72 72 71 70 68 65 63 61 59 57 56 54 52 51
29 29 29 28 27 27 28 28 29 29 30 31 32 33 33 33 33 32 31 31 31 31 31 31 31 30 30 30 30 31 31 32 33 33 34 34 35 36 37 38 38 39 39 40 40 42 43 45 46 48 49 50 52 53 54 56 58 59 60 61 63 65 67 68 69 70 71 71 71 71 70 68 67 66 63 61 59 57 56 54 52 51 50 50 49
28 27 27 27 28 29 30 30 31 32 33 34 34 34 34 34 34 33 32 31 30 30 30 30 30 30 30 31 32 33 34 34 34 34 35 35 35 36 36 37 39 40 41 42 43 44 46 47 49 50 51 52 54 55 56 58 59 61 62 63 64 66 67 68 68 68 68 68 67 65 63 61 59 57 55 53 52 51 50 49 49 50 50 51 51
32 32 32 31 31 31 32 32 33 34 34 34 33 33 33 33 33 32 31 30 30 30 30 31 32 32 33 34 34 35 35 35 35 36 36 37 38 38 39 40 41 43 44 45 45 47 48 49 50 51 52 53 55 56 58 60 61 62 63 64 65 66 66 65 63 62 61 60 59 56 54 53 51 50 49 49 49 49 49 50 51 52 53 54 54
36 37 38 38 36 34 34 34 34 34 33 33 32 31 31 30 30 30 30 30 30 30 31 31 32 33 33 34 34 35 36 36 37 38 39 40 41 42 42 43 43 44 46 47 47 48 49 50 52 53 54 55 57 58 59 60 61 61 62 63 63 63 62 60 57 55 54 53 51 50 48 48 47 48 48 49 50 51 51 52 53 54 55 55 55
39 40 41 41 40 38 36 36 35 34 33 32 31 30 30 29 29 29 29 29 30 30 31 31 32 33 34 35 35 36 37 37 38 39 40 41 42 42 43 43 44 45 47 48 48 49 50 51 53 54 55 56 56 57 58 59 59 60 60 60 60 59 57 55 52 50 49 48 48 47 47 48 48 49 50 51 52 53 53 53 53 53 52 51 50
38 40 41 41 40 39 38 37 36 35 33 32 31 30 29 29 29 29 30 30 30 31 31 32 33 34 34 35 36 36 37 38 39 40 41 41 42 43 44 44 45 46 48 49 50 51 52 52 53 54 55 55 56 57 57 57 57 56 55 54 53 52 50 48 46 45 45 45 46 47 48 49 50 50 51 52 52 51 51 50 49 48 47 46 45
35 36 36 36 36 36 36 36 35 34 33 31 30 29 29 29 29 29 29 30 30 30 31 32 32 33 34 35 35 36 37 38 39 40 41 42 43 44 44 45 46 47 48 49 50 51 51 51 52 52 53 53 53 52 52 51 50 49 48 46 45 44 43 43 43 43 44 45 47 48 49 50 50 50 49 48 47 46 45 45 44 44 43 42 41
36 35 35 34 34 34 35 34 34 33 33 32 31 30 30 30 30 30 30 30 30 30 31 31 32 33 34 34 35 35 37 38 39 39 40 41 43 43 44 45 45 46 46 47 47 48 48 48 49 49 48 48 47 46 45 44 42 41 40 40 40 41 42 43 44 44 45 46 47 47 47 46 45 44 43 42 42 42 42 42 41 40 39 37 37
36 35 35 34 34 34 33 33 33 33 33 33 33 32 32 32 31 31 31 31 30 31 32 33 34 34 34 34 35 36 37 38 39 40 40 41 42 43 43 43 44 44 44 44 45 45 46 46 46 45 44 43 42 40 39 38 37 37 38 38 40 41 42 44 44 44 44 43 42 41 40 39 39 39 39 39 40 40 41 40 38 36 34 34 34
37 36 34 33 33 33 33 33 33 33 33 34 34 34 33 33 32 31 31 31 32 32 33 34 34 34 34 35 36 37 38 38 39 40 40 40 41 41 41 42 42 43 43 44 44 44 43 43 41 40 38 36 35 34 34 35 36 37 38 39 40 41 42 42 41 39 38 37 36 36 36 36 37 37 38 38 39 39 38 37 34 32 31 32 32
36 36 34 33 33 33 33 33 33 34 34 34 35 34 34 34 34 33 33 32 33 34 34 34 34 34 34 35 36 37 37 38 39 39 39 40 40 41 41 42 42 42 42 42 41 39 37 36 34 32 32 31 32 33 34 35 36 37 38 39 40 39 38 37 35 34 34 34 34 35 35 35 36 37 37 38 37 35 33 32 30 30 31 32 32
34 34 34 33 32 33 33 33 34 34 34 34 34 34 34 35 35 34 33 33 34 34 35 35 35 35 35 35 36 37 37 38 38 39 39 40 40 40 41 41 40 39 37 36 34 32 30 29 29 28 29 30 31 33 34 35 36 37 38 38 37 36 34 33 32 32 33 33 34 34 34 35 36 36 36 35 33 29 28 28 29 29 30 31 30
32 33 33 33 32 32 33 33 33 33 33 33 33 33 33 34 34 34 33 33 34 35 35 35 35 35 35 36 36 37 37 38 38 38 39 39 39 38 38 36 34 33 31 29 28 27 26 26 27 27 29 30 31 32 34 35 36 37 37 36 34 33 32 31 31 31 32 32 33 33 34 34 35 34 33 31 27 24 24 25 26 26 27 27 27
33 33 33 32 32 33 32 32 32 32 32 32 33 33 33 33 34 33 33 34 34 35 35 35 36 36 36 36 36 37 37 37 37 37 37 36 36 34 33 31 29 27 26 25 24 24 24 25 26 28 29 30 31 32 34 35 36 36 35 33 32 31 30 30 30 30 31 31 32 32 33 34 33 32 29 26 23 21 21 22 22 23 24 25 24
34 33 33 32 32 32 32 31 31 32 32 32 33 33 33 33 34 34 34 34 35 35 35 35 35 35 35 35 35 35 35 35 35 35 34 33 32 30 28 26 25 23 23 22 22 23 24 25 26 28 29 30 30 32 34 35 35 34 32 31 29 29 28 29 29 29 30 30 30 31 32 32 31 29 25 22 20 19 19 20 20 22 24 25 24
35 35 34 33 33 33 33 33 32 32 33 33 33 33 33 33 33 34 33 33 34 34 34 34 34 33 33 34 34 34 33 33 33 32 31 30 28 26 24 23 22 21 21 21 22 23 24 25 26 27 28 29 30 32 33 34 33 32 30 29 28 27 27 27 28 28 29 29 29 30 31 31 29 25 22 19 18 18 18 18 20 21 23 24 23
34 35 35 35 34 34 34 34 34 33 33 33 33 33 33 33 32 32 32 32 32 32 32 32 32 32 32 32 32 32 32 31 30 29 27 26 24 23 21 21 20 20 20 21 22 23 24 25 26 26 27 28 30 31 32 32 31 30 29 27 27 26 26 27 27 27 28 28 29 29 30 29 26 23 20 18 18 18 18 18 20 21 23 24 23
32 33 34 34 34 34 34 33 33 33 33 33 33 33 32 32 31 31 31 31 31 31 31 30 30 30 30 30 30 30 29 28 27 26 24 23 22 21 20 19 19 20 20 21 22 23 24 24 25 25 26 27 29 30 31 31 31 29 28 27 26 26 25 26 26 27 28 28 29 29 29 28 25 22 19 18 18 18 19 19 21 22 23 23 22
29 30 31 32 33 33 33 33 32 32 31 32 31 31 31 31 31 30 30 30 30 30 29 29 29 29 29 28 28 27 26 25 25 23 22 21 20 20 19 19 19 19 20 21 22 23 24 24 24 25 25 26 28 29 30 31 30 29 28 27 26 25 25 25 26 26 27 28 28 28 28 27 24 21 20 19 19 19 20 21 22 23 23 23 22
29 29 29 30 31 31 32 32 32 32 31 31 30 30 30 30 30 29 29 29 28 28 28 28 28 28 27 26 26 25 25 24 23 22 21 21 20 19 19 19 19 19 20 21 22 23 23 23 24 24 25 25 27 28 29 30 30 29 28 27 26 26 25 25 25 26 27 27 28 28 27 26 24 22 21 20 20 21 21 22 22 23 23 22 21
28 29 29 30 30 30 31 31 31 31 31 31 30 30 29 29 28 28 28 27 27 27 27 26 26 26 26 26 25 25 24 24 23 22 21 20 20 19 19 19 20 20 21 22 22 23 23 23 24 24 24 24 26 27 28 29 29 29 28 28 27 26 26 26 25 26 26 27 27 27 27 26 24 22 21 20 21 21 21 22 22 21 21 21 20
26 27 27 28 29 30 30 30 31 31 30 30 30 30 29 29 28 27 27 26 26 25 25 25 25 25 25 25 24 24 23 23 23 22 21 21 20 20 20 20 21 21 22 22 23 23 23 24 24 24 23 24 25 26 27 28 29 29 29 28 27 26 26 26 25 25 25 26 26 26 26 25 24 22 20 20 19 19 19 20 19 19 18 18 18
Wind_Direction
237 243 248 249 250 249 247 247 245 236 231 233 231 225 218 219 219 220 224 229 229 229 234 238 240 238 236 234 231 229 229 230 232 235 238 240 243 249 253 255 255 256 255 252 251 252 255 259 263 265 264 261 259 257 259 262 264 265 268 273 277 277 273 271 265 256 257 267 272 270 271 272 269 268 270 270 270 272 273 275 277 279 281 283 284
246 256 268 265 254 247 245 247 247 243 239 238 237 232 224 219 218 221 226 229 227 229 234 236 235 233 232 232 230 230 231 233 236 240 243 246 248 252 255 257 258 259 260 259 257 256 257 261 265 269 270 267 264 263 264 267 268 267 270 274 276 275 274 274 273 269 262 264 272 275 276 277 274 270 272 272 272 274 275 277 279 281 284 285 286
256 263 274 268 253 248 249 244 240 241 243 243 243 235 223 218 218 221 225 226 226 229 230 230 230 230 232 233 233 234 236 237 239 242 245 247 249 253 255 258 261 262 264 264 264 263 263 265 268 272 273 273 272 272 273 273 272 271 273 276 276 274 275 274 272 270 267 264 267 267 268 273 273 272 275 276 276 276 277 278 279 280 283 285 287
266 270 275 269 254 250 252 245 237 240 244 243 237 220 210 212 217 222 225 224 225 226 225 225 228 230 233 236 237 240 241 241 241 242 243 245 246 248 252 257 263 266 268 267 267 267 268 270 272 275 276 276 277 279 277 274 275 277 277 275 275 274 275 276 274 273 271 269 269 267 265 269 274 275 276 277 278 277 276 276 277 279 282 285 287
277 277 276 275 268 258 253 247 240 239 240 234 218 202 204 213 220 224 226 227 227 226 225 227 231 234 236 236 238 242 243 242 242 240 239 240 242 245 251 257 263 267 269 270 270 271 271 272 275 277 277 277 279 279 276 274 278 282 279 274 274 273 272 274 276 277 276 273 272 272 269 269 274 277 278 277 277 278 277 277 278 281 285 287 289
277 277 277 278 277 267 254 244 235 228 228 227 215 203 207 217 224 227 229 232 232 230 227 228 234 238 238 237 240 244 245 243 240 237 236 238 241 246 251 256 259 262 266 269 270 271 272 274 275 276 277 278 280 278 276 277 280 279 277 275 274 270 267 267 270 273 275 273 272 273 275 274 274 276 278 278 278 278 279 282 284 286 288 289 290
275 276 279 277 276 269 251 233 224 217 219 226 220 211 213 220 226 230 232 235 235 232 228 229 234 238 237 238 242 244 241 238 236 235 236 240 244 248 251 255 257 260 263 265 267 269 272 273 275 278 280 281 281 280 278 279 280 278 277 276 275 271 267 266 267 270 273 276 276 277 278 279 277 275 277 280 281 282 283 287 290 291 291 290 290
279 277 277 275 275 269 243 226 224 221 223 227 221 216 220 223 227 231 235 237 236 230 226 229 234 235 235 237 240 239 237 236 237 238 240 243 248 250 252 254 257 259 261 262 265 268 270 272 276 280 282 282 282 281 280 280 279 279 277 276 275 274 272 271 272 272 272 274 276 277 278 278 278 278 279 282 282 283 285 288 289 288 287 287 288
277 276 276 271 271 262 236 226 227 221 220 222 215 215 223 226 229 233 235 237 235 227 226 230 233 234 236 238 234 232 236 239 240 241 243 245 249 250 252 253 256 258 260 261 264 266 268 271 275 279 281 282 282 281 281 281 280 279 278 275 275 275 275 275 275 275 273 272 271 271 272 274 276 279 281 282 281 281 284 286 287 285 282 283 286
271 273 274 270 265 252 231 220 215 211 213 217 215 220 227 229 232 236 236 237 235 230 231 234 233 232 237 237 231 231 237 241 242 244 246 248 250 251 253 254 256 258 259 261 263 263 266 270 275 280 283 284 284 283 283 283 281 280 278 275 273 272 273 275 276 276 276 275 273 273 274 276 278 280 281 281 281 281 282 283 283 282 281 283 286
270 271 272 270 258 234 216 209 206 207 212 216 219 226 233 235 237 237 238 239 237 235 235 235 232 231 233 234 234 237 240 242 244 247 250 253 254 255 256 257 258 259 261 262 263 264 266 269 273 279 282 283 282 281 280 279 278 276 276 275 274 274 274 274 274 274 275 276 276 277 278 279 280 281 283 283 283 283 283 283 282 281 281 282 283
263 264 263 261 248 221 207 206 208 212 216 219 224 230 235 241 243 241 240 237 234 233 232 230 229 228 229 232 237 241 244 246 248 250 252 255 257 257 258 258 260 262 263 264 265 265 266 267 270 273 276 279 279 279 278 276 273 271 271 272 274 275 274 273 273 272 273 275 276 277 277 278 280 282 283 285 286 286 286 286 285 285 285 285 284
259 257 250 245 244 240 231 222 223 227 225 222 228 235 238 241 243 242 241 235 231 232 233 231 230 230 231 236 241 246 249 249 249 252 255 258 259 259 259 258 258 260 262 264 266 267 267 267 268 269 273 277 279 279 277 274 272 271 271 271 271 271 273 274 274 274 274 274 274 274 274 276 279 282 284 286 287 288 289 289 289 289 290 289 287
252 251 246 242 241 243 240 231 227 228 228 226 233 240 240 239 237 236 234 230 227 231 235 237 236 237 239 242 246 249 250 249 250 255 260 262 262 261 259 258 258 259 261 263 266 269 270 270 269 268 269 273 275 274 272 271 272 272 271 271 270 270 272 273 274 275 275 274 274 275 276 277 280 285 287 288 289 290 292 293 292 291 290 289 288
237 238 236 235 237 237 233 228 226 227 227 229 235 240 240 240 238 236 234 232 230 232 236 238 238 240 243 245 246 247 248 250 253 258 262 263 263 262 260 260 261 263 264 264 266 268 271 272 273 272 272 273 273 271 268 267 270 271 271 271 273 274 275 275 275 275 276 276 277 278 280 281 283 287 289 289 291 293 293 292 291 289 287 286 286
238 234 216 213 218 228 230 228 231 231 228 230 238 243 241 240 238 237 235 233 233 234 235 236 236 239 241 242 243 244 246 249 252 254 255 256 257 257 258 258 260 263 265 267 267 268 271 272 273 272 271 269 267 265 263 264 269 272 272 273 274 277 278 278 278 277 277 277 278 279 281 283 285 287 289 289 290 291 290 288 286 284 283 284 285
240 237 220 208 207 223 232 229 228 230 229 232 237 238 239 239 234 231 229 227 228 230 231 233 236 239 241 240 240 242 244 247 251 253 254 254 254 255 257 259 260 262 265 267 268 268 269 268 267 266 264 262 258 255 256 260 265 270 273 274 275 277 279 280 280 280 281 281 282 282 284 286 287 288 288 289 289 290 289 287 282 280 282 284 285
238 232 229 217 204 216 232 237 235 232 230 234 232 229 231 231 220 215 217 219 222 227 230 233 235 237 238 238 239 242 245 248 251 254 257 259 260 260 259 258 258 260 262 263 265 266 265 263 261 260 260 259 256 253 253 256 262 267 273 276 276 277 277 278 280 281 283 284 285 286 286 287 288 289 289 289 289 288 287 285 282 282 283 284 285
239 232 227 220 212 213 222 230 230 225 227 234 232 223 221 222 219 219 223 225 227 230 232 235 237 238 240 242 244 247 250 252 254 255 258 260 262 261 259 257 257 257 257 258 260 262 260 258 257 258 258 259 259 258 257 260 264 269 274 276 277 277 278 278 279 280 282 284 285 285 285 285 286 286 286 286 286 285 284 284 283 283 283 284 284
244 238 232 228 224 222 225 227 224 220 223 226 221 215 219 226 233 239 241 241 241 240 241 242 243 244 245 248 251 252 251 252 252 253 255 257 259 260 258 257 256 255 255 255 256 257 258 258 259 260 262 263 265 265 265 267 269 273 275 277 278 280 280 281 281 281 282 282 283 283 283 283 283 283 284 285 285 285 285 285 284 283 283 283 283
255 248 243 239 232 222 217 215 212 212 213 210 207 214 225 232 238 243 246 249 250 249 249 249 248 248 249 250 252 251 250 250 252 253 256 258 259 259 259 258 258 257 257 258 257 256 258 260 262 264 265 267 269 270 271 272 273 274 276 278 280 282 283 283 284 284 283 283 283 283 283 284 284 285 285 285 285 284 284 284 283 283 283 283 283
260 256 252 250 246 236 226 219 215 215 215 215 221 232 240 244 247 251 253 253 252 251 250 250 251 251 252 253 254 252 250 250 252 253 256 258 259 260 261 261 261 260 261 262 262 261 262 264 267 270 272 274 275 276 276 277 278 280 281 283 284 284 284 285 285 285 285 285 285 285 285 285 286 286 286 286 286 286 286 286 286 286 286 285 285
251 251 250 249 251 250 247 242 238 236 236 240 245 250 253 254 255 255 253 252 252 252 253 253 253 254 255 256 256 255 254 254 254 253 253 255 258 260 262 262 262 262 262 263 265 266 267 269 272 275 276 277 278 279 281 282 283 284 285 285 284 284 284 284 285 285 285 286 286 286 287 287 287 288 288 288 287 287 287 287 287 288 288 288 288
246 243 246 251 254 253 249 246 244 245 248 250 248 244 244 245 246 246 248 248 250 252 254 255 256 257 256 255 253 252 254 255 256 255 255 254 256 257 259 261 263 263 264 265 266 268 270 272 275 277 279 280 281 282 283 284 284 284 284 283 283 283 283 284 284 285 285 285 286 286 286 286 286 286 286 287 287 287 287 287 287 287 288 288 288
253 250 250 253 255 254 250 248 248 251 254 255 251 245 242 241 241 244 247 250 253 255 257 259 260 261 261 260 257 255 256 257 258 258 259 259 259 259 259 261 263 264 265 266 268 270 272 274 277 280 281 282 283 283 283 283 283 283 282 282 283 283 283 284 284 284 284 284 284 284 284 284 284 284 285 285 285 285 286 287 287 288 288 288 288
255 256 255 255 256 256 254 253 252 253 254 254 252 249 247 245 245 246 249 252 254 256 257 259 261 263 264 264 264 263 263 263 263 263 264 265 265 266 266 267 267 268 268 268 269 271 273 276 279 281 282 282 283 282 282 282 282 283 283 283 284 284 285 285 285 285 285 285 284 284 284 284 284 285 285 285 285 286 286 287 288 288 288 288 289
260 260 259 259 259 259 258 256 254 252 251 249 247 245 245 246 246 247 250 254 256 257 258 260 261 263 264 265 267 268 268 267 267 268 268 269 270 270 271 271 272 272 272 272 273 274 276 279 281 282 282 282 282 283 283 284 284 285 285 286 287 287 287 287 287 287 287 287 287 287 286 286 286 287 287 287 288 288 288 288 289 289 289 289 289
271 269 265 262 261 260 258 255 253 251 249 248 247 246 247 248 249 250 252 254 257 258 258 258 259 260 261 263 265 268 270 271 271 271 271 272 272 272 272 272 272 273 274 275 277 279 281 282 283 283 283 284 285 286 287 288 288 288 289 290 290 290 289 289 289 288 288 288 288 288 288 289 289 289 290 290 291 291 290 290 290 290 289 289 288
263 265 264 262 260 257 253 250 249 248 247 246 246 248 250 252 255 258 259 261 262 263 263 263 262 261 261 262 264 266 269 271 272 273 273 274 274 274 275 275 275 276 278 279 281 283 284 285 285 286 287 287 288 289 289 289 289 289 289 289 289 289 289 288 288 288 288 288 288 289 289 290 290 291 291 291 291 291 291 290 290 289 288 287 286
243 246 250 251 249 247 245 245 245 244 244 245 247 251 254 257 259 260 260 261 263 264 266 267 266 265 264 265 266 267 269 270 272 273 274 275 276 277 277 279 280 281 282 283 285 285 286 286 287 287 288 288 288 288 288 288 288 288 288 287 287 288 288 288 288 288 289 289 289 290 291 291 292 292 292 291 291 290 290 289 289 288 287 286 285
236 232 231 228 226 228 233 238 241 241 242 244 247 249 251 252 252 252 251 251 252 253 257 260 262 264 265 267 269 270 271 272 274 275 276 277 277 278 279 280 281 282 283 283 284 285 285 286 286 286 286 287 287 287 287 287 287 288 288 287 287 287 288 289 290 291 291 292 292 292 292 292 292 292 291 291 291 290 290 289 289 288 288 287 287
236 232 230 228 227 228 229 232 235 238 240 243 246 249 251 252 253 254 254 255 256 257 259 261 264 266 267 269 271 272 272 273 274 276 277 278 279 279 280 281 282 283 283 283 283 283 284 285 285 285 286 286 287 287 287 287 288 288 288 288 288 288 289 291 292 293 293 293 293 293 292 292 292 292 291 291 291 291 291 291 291 290 290 290 289
240 239 239 239 241 243 243 242 242 243 245 249 252 255 257 259 260 260 261 262 262 263 264 266 267 268 268 269 270 271 272 273 275 276 277 278 279 279 280 281 282 282 283 283 283 284 284 285 285 286 286 286 286 287 287 288 288 289 289 290 290 291 292 292 293 293 293 293 292 292 292 292 292 292 292 292 292 292 292 292 292 292 292 291 291
244 246 247 248 249 251 251 250 249 249 251 255 257 259 260 261 262 263 263 264 264 264 265 266 267 268 269 270 271 273 274 275 276 277 277 278 279 280 281 282 282 283 284 284 284 284 284 285 285 286 286 286 286 287 287 288 289 290 290 291 291 292 291 291 291 290 291 291 292 292 293 293 293 293 294 294 294 294 293 293 293 293 293 293 293
241 244 246 248 250 250 250 251 253 256 259 260 261 261 261 261 262 263 264 265 265 266 267 268 269 270 272 273 274 275 276 276 276 277 278 279 280 280 281 281 282 282 282 283 284 284 284 284 285 285 286 286 287 287 287 288 289 289 290 290 290 290 290 290 291 291 292 293 294 295 295 295 295 295 295 295 295 295 295 295 295 295 295 295 295
249 248 250 251 251 252 252 254 257 260 263 263 262 262 263 263 264 265 266 267 268 269 271 271 271 271 271 272 273 274 274 274 274 275 276 277 277 278 278 279 279 280 281 282 283 284 284 285 285 285 286 286 287 287 288 289 289 289 290 290 290 291 292 293 294 295 295 295 295 295 296 296 296 296 296 296 296 296 296 296 297 297 297 297 297
259 258 259 260 260 259 259 260 260 262 262 262 262 263 264 266 267 269 270 271 272 273 273 272 271 272 274 275 276 275 274 274 274 275 275 276 276 277 278 278 279 280 281 282 283 284 284 285 286 286 287 288 289 289 289 290 290 290 291 292 294 295 296 296 297 296 296 296 295 295 295 296 296 296 296 297 297 297 297 297 298 298 298 299 299
261 262 262 264 264 263 263 263 263 263 264 264 264 265 266 268 270 272 273 274 274 274 272 271 272 274 275 276 275 273 273 274 275 275 276 276 277 278 279 280 281 282 282 283 284 284 285 286 287 288 289 289 289 290 290 291 292 294 295 297 297 298 298 298 298 298 298 297 297 297 297 297 298 298 298 298 298 298 298 298 299 299 300 300 300
263 264 263 263 263 263 262 262 263 263 264 265 266 268 269 270 271 272 272 273 273 271 270 270 271 272 273 272 271 272 273 274 275 276 277 278 279 280 281 282 283 283 284 284 285 286 287 287 288 289 289 290 291 292 294 296 297 299 300 300 301 301 301 300 300 301 301 301 301 301 301 301 301 301 301 300 300 300 300 299 299 300 301 302 302
264 265 264 263 262 262 262 262 262 262 263 264 266 268 269 271 271 272 273 272 270 268 268 268 270 270 271 271 271 272 274 276 277 278 279 280 280 281 281 282 283 283 284 285 286 286 287 287 288 289 291 293 295 297 299 301 302 303 304 304 304 304 303 303 304 304 304 304 304 304 304 304 304 303 303 303 303 302 300 299 300 301 303 304 303
264 264 264 265 264 264 264 264 264 265 265 266 267 268 269 269 270 271 272 270 268 267 267 268 269 269 270 271 272 274 275 276 277 278 279 280 280 281 281 282 282 283 284 285 286 287 287 288 290 292 295 298 301 303 305 306 307 308 308 308 307 306 306 306 306 306 307 307 307 307 307 307 306 305 305 305 304 301 298 300 303 306 308 308 306
265 265 264 264 264 264 264 265 265 265 266 266 266 266 266 266 267 267 267 266 265 265 266 267 268 269 270 271 272 274 274 275 276 277 278 278 279 281 282 283 284 284 285 285 286 287 289 292 295 297 300 303 305 308 309 311 311 312 311 310 309 308 308 308 308 309 310 310 310 310 310 309 309 309 308 306 303 299 300 304 310 313 315 314 311
266 265 265 265 264 263 262 262 262 263 263 262 262 262 261 262 262 262 262 262 262 263 264 265 266 267 269 270 271 272 273 274 275 277 278 279 280 282 282 283 283 283 283 284 286 289 292 296 299 302 304 307 309 311 313 314 315 314 313 311 310 309 310 310 311 312 312 313 313 313 313 313 313 312 309 305 302 301 303 308 314 320 323 321 316
265 264 264 263 262 261 261 260 258 258 257 257 258 258 258 258 258 259 259 260 261 262 263 264 265 267 268 269 270 272 273 275 276 277 278 280 280 281 280 279 279 279 281 284 287 291 295 298 302 305 307 309 311 314 316 317 317 316 315 313 311 311 312 312 313 314 315 316 316 316 316 317 316 314 308 302 300 301 304 310 318 325 328 326 320
262 262 262 261 260 259 260 259 257 256 256 256 256 256 256 256 257 258 259 260 261 263 264 265 267 268 269 270 271 272 274 275 276 277 278 278 277 275 274 273 274 277 281 285 289 293 297 300 304 306 308 311 314 317 319 320 320 319 318 315 314 314 314 315 316 317 318 320 321 321 320 320 319 314 306 300 298 300 305 312 320 325 328 329 324
259 259 259 258 257 257 258 259 258 258 258 259 258 259 259 260 260 261 262 263 264 265 266 268 269 270 270 271 271 272 273 274 274 274 272 270 268 267 267 269 273 278 282 287 291 295 298 301 304 307 309 312 316 319 322 324 324 323 321 318 317 317 317 319 320 321 323 324 325 325 325 324 321 315 306 299 298 300 305 313 320 324 326 329 327
264 263 263 261 260 259 260 261 262 261 262 262 262 263 263 264 264 264 265 265 266 267 267 268 268 269 269 269 270 271 271 270 268 266 263 261 260 261 264 269 274 278 283 288 292 295 298 302 305 308 310 313 318 322 326 328 328 327 324 321 319 319 320 321 323 325 327 329 329 329 329 328 324 317 308 300 299 301 304 311 318 321 323 326 327
268 268 268 267 266 264 263 263 263 263 263 263 264 264 265 265 264 264 265 265 266 266 267 267 266 266 266 267 268 268 265 262 259 256 254 254 256 259 264 269 274 279 284 288 292 295 298 302 305 308 311 315 320 325 329 331 331 330 327 324 322 322 322 324 326 328 330 331 332 333 332 331 327 320 312 305 301 302 304 307 312 317 319 322 326
270 269 269 269 268 267 265 264 263 262 262 261 261 262 263 263 263 263 263 263 264 264 265 265 265 265 264 264 263 261 257 252 249 248 249 251 255 259 263 268 274 279 284 288 292 295 299 302 304 307 311 316 321 326 330 333 334 333 331 328 326 325 325 326 327 329 331 333 334 335 334 333 329 324 317 311 306 304 304 304 306 310 314 317 321
270 270 270 269 268 267 266 265 265 263 263 262 260 259 260 260 260 260 261 261 262 263 263 263 262 261 260 259 257 254 249 245 243 245 247 250 254 258 262 268 273 278 283 288 292 296 299 301 303 306 310 316 321 326 330 333 335 335 334 332 329 328 327 327 328 329 331 333 335 336 336 335 331 326 320 315 310 306 304 303 302 304 308 313 316
272 271 271 270 269 268 266 266 265 264 263 263 261 260 259 259 258 259 259 259 260 260 260 259 258 257 256 254 251 245 241 240 242 245 247 249 252 257 261 266 271 277 282 288 293 297 299 300 301 304 309 314 319 324 329 333 336 337 336 335 332 330 329 329 329 329 330 332 334 335 336 335 333 329 324 319 314 309 306 304 303 303 306 310 313
Height
5754 5754 5755 5755 5757 5760 5761 5762 5762 5762 5763 5764 5764 5764 5766 5767 5769 5770 5771 5772 5773 5774 5775 5777 5778 5779 5780 5781 5782 5783 5783 5783 5784 5785 5785 5786 5787 5788 5788 5789 5789 5790 5790 5790 5791 5791 5792 5792 5792 5793 5793 5792 5793 5793 5793 5793 5794 5794 5795 5795 5796 5796 5796 5796 5797 5797 5797 5795 5795 5795 5795 5794 5795 5794 5794 5795 5795 5795 5795 5794 5794 5794 5794 5794 5793
5752 5752 5753 5753 5755 5756 5757 5758 5759 5760 5761 5762 5762 5763 5763 5765 5767 5768 5769 5770 5771 5772 5774 5775 5776 5777 5778 5779 5780 5780 5781 5782 5782 5783 5783 5784 5785 5785 5786 5787 5787 5787 5787 5788 5788 5789 5789 5790 5790 5791 5791 5791 5791 5791 5791 5791 5792 5792 5792 5793 5793 5793 5793 5793 5793 5794 5794 5793 5792 5792 5792 5791 5792 5792 5792 5793 5792 5792 5792 5792 5792 5792 5792 5791 5791
5750 5750 5750 5750 5751 5752 5753 5754 5756 5757 5758 5759 5760 5760 5761 5763 5764 5766 5767 5768 5769 5771 5772 5773 5773 5774 5775 5776 5777 5778 5779 5779 5780 5781 5781 5782 5782 5783 5783 5784 5785 5785 5785 5786 5786 5787 5787 5788 5788 5788 5788 5788 5788 5788 5789 5789 5789 5789 5789 5790 5790 5790 5790 5790 5790 5790 5791 5791 5791 5791 5790 5790 5790 5790 5790 5790 5790 5790 5790 5789 5789 5789 5789 5788 5788
5747 5747 5748 5748 5748 5749 5750 5752 5754 5755 5755 5756 5757 5758 5759 5760 5762 5763 5765 5766 5767 5769 5769 5770 5771 5772 5773 5774 5775 5776 5777 5777 5778 5779 5779 5780 5780 5781 5781 5781 5782 5783 5783 5783 5784 5784 5785 5785 5786 5786 5786 5786 5786 5786 5787 5787 5786 5787 5787 5787 5788 5787 5787 5786 5787 5787 5788 5788 5788 5789 5789 5788 5788 5788 5788 5787 5787 5787 5787 5786 5786 5786 5786 5785 5785
5743 5744 5745 5746 5747 5748 5748 5750 5752 5752 5753 5754 5754 5755 5756 5758 5759 5761 5762 5763 5765 5766 5767 5768 5769 5770 5771 5772 5773 5774 5774 5775 5776 5777 5777 5777 5778 5778 5779 5779 5780 5780 5780 5781 5781 5782 5782 5783 5784 5784 5784 5784 5784 5784 5784 5784 5784 5784 5785 5785 5785 5785 5784 5784 5783 5784 5785 5785 5786 5786 5786 5786 5785 5785 5785 5785 5784 5784 5784 5783 5783 5783 5783 5782 5782
5739 5740 5741 5743 5744 5745 5745 5747 5749 5750 5750 5751 5751 5752 5754 5756 5757 5758 5759 5761 5762 5763 5764 5765 5767 5768 5769 5770 5771 5772 5772 5773 5774 5774 5775 5775 5776 5776 5776 5777 5778 5778 5778 5779 5779 5779 5780 5781 5781 5781 5781 5781 5782 5782 5782 5782 5782 5782 5782 5782 5782 5782 5782 5781 5782 5782 5782 5783 5783 5783 5783 5783 5783 5782 5782 5782 5781 5781 5781 5781 5780 5780 5780 5779 5779
5735 5736 5738 5739 5741 5741 5741 5742 5744 5746 5747 5748 5749 5750 5751 5753 5754 5756 5757 5758 5759 5761 5762 5763 5764 5765 5767 5768 5769 5770 5770 5770 5771 5771 5772 5773 5773 5774 5774 5775 5776 5776 5776 5777 5777 5777 5778 5778 5778 5778 5778 5778 5779 5779 5778 5778 5778 5778 5778 5778 5778 5778 5779 5779 5779 5780 5779 5779 5779 5779 5778 5778 5779 5779 5779 5779 5778 5778 5778 5778 5777 5777 5776 5776 5775
5733 5734 5735 5735 5736 5737 5738 5739 5741 5743 5744 5745 5746 5748 5749 5750 5752 5753 5755 5756 5757 5759 5760 5761 5762 5764 5765 5766 5767 5767 5768 5768 5768 5769 5770 5771 5771 5771 5772 5773 5773 5774 5774 5775 5775 5775 5775 5776 5776 5776 5776 5775 5775 5776 5776 5775 5775 5775 5775 5775 5775 5775 5776 5776 5776 5777 5776 5776 5775 5775 5774 5774 5774 5775 5775 5776 5776 5775 5775 5775 5774 5773 5773 5772 5772
5731 5733 5733 5732 5732 5734 5736 5737 5738 5740 5742 5743 5744 5745 5746 5748 5750 5751 5752 5753 5755 5757 5757 5758 5760 5762 5763 5764 5764 5765 5765 5765 5766 5767 5768 5768 5769 5769 5769 5770 5771 5771 5772 5772 5773 5773 5773 5773 5773 5773 5773 5773 5773 5773 5773 5773 5773 5773 5773 5773 5773 5772 5772 5773 5773 5773 5773 5773 5772 5772 5771 5771 5771 5771 5772 5772 5772 5772 5771 5771 5770 5769 5768 5768 5768
5728 5730 5731 5730 5729 5731 5733 5735 5736 5738 5740 5741 5741 5743 5744 5746 5747 5748 5749 5750 5753 5754 5755 5756 5759 5760 5761 5761 5762 5762 5762 5763 5764 5764 5765 5766 5766 5767 5767 5768 5768 5768 5769 5769 5770 5770 5770 5771 5771 5771 5771 5770 5770 5770 5770 5770 5770 5770 5770 5770 5770 5770 5770 5770 5769 5769 5768 5768 5768 5768 5768 5768 5768 5768 5767 5767 5768 5767 5767 5767 5766 5765 5764 5764 5763
5726 5727 5728 5727 5726 5728 5730 5732 5734 5735 5737 5738 5739 5741 5742 5743 5745 5745 5747 5749 5751 5752 5753 5755 5757 5757 5758 5759 5759 5759 5760 5761 5762 5762 5763 5764 5764 5764 5765 5765 5765 5765 5766 5766 5767 5767 5768 5768 5768 5768 5768 5768 5767 5767 5766 5766 5767 5767 5767 5766 5767 5767 5767 5767 5766 5766 5765 5765 5765 5765 5765 5765 5765 5764 5764 5763 5763 5763 5762 5761 5761 5760 5760 5760 5759
5723 5724 5725 5725 5725 5726 5728 5730 5731 5733 5734 5735 5737 5738 5740 5741 5742 5743 5745 5746 5748 5749 5750 5752 5753 5754 5755 5756 5756 5757 5758 5759 5759 5760 5760 5761 5761 5761 5762 5762 5762 5762 5762 5763 5764 5765 5765 5765 5765 5765 5765 5765 5764 5764 5763 5763 5763 5763 5763 5763 5764 5764 5763 5763 5763 5762 5762 5762 5762 5762 5762 5761 5761 5761 5760 5759 5759 5759 5758 5757 5755 5755 5754 5754 5754
5720 5721 5723 5723 5724 5725 5726 5727 5729 5730 5731 5733 5734 5736 5738 5739 5740 5741 5742 5744 5745 5746 5747 5749 5750 5751 5752 5752 5753 5754 5755 5756 5756 5757 5758 5758 5758 5759 5759 5759 5759 5759 5758 5759 5761 5762 5762 5762 5762 5762 5762 5762 5761 5760 5760 5759 5759 5760 5760 5760 5761 5761 5760 5759 5759 5758 5759 5759 5759 5758 5758 5758 5758 5758 5757 5756 5756 5755 5754 5753 5752 5750 5749 5748 5748
5718 5719 5720 5721 5722 5723 5724 5725 5727 5728 5729 5730 5732 5733 5735 5736 5737 5738 5740 5741 5742 5743 5745 5746 5748 5748 5749 5750 5751 5752 5752 5753 5754 5754 5755 5755 5756 5756 5756 5756 5756 5755 5755 5756 5758 5758 5759 5758 5759 5759 5759 5759 5758 5756 5756 5756 5756 5757 5757 5757 5758 5758 5757 5756 5755 5755 5755 5755 5754 5754 5753 5754 5754 5753 5753 5753 5752 5751 5751 5749 5747 5746 5745 5744 5743
5717 5717 5718 5719 5720 5721 5722 5723 5725 5726 5727 5728 5729 5730 5732 5733 5734 5735 5737 5738 5739 5740 5742 5744 5745 5746 5747 5747 5748 5749 5749 5750 5751 5752 5752 5752 5753 5753 5753 5754 5753 5753 5753 5754 5754 5754 5754 5754 5754 5755 5755 5755 5754 5753 5752 5753 5753 5754 5754 5754 5754 5754 5753 5752 5752 5752 5751 5751 5750 5750 5749 5749 5748 5748 5748 5748 5747 5747 5746 5744 5743 5741 5740 5740 5739
5714 5716 5716 5716 5717 5718 5720 5721 5723 5724 5725 5726 5727 5727 5728 5729 5731 5732 5734 5735 5736 5738 5739 5741 5742 5743 5744 5744 5745 5746 5747 5747 5748 5748 5748 5748 5749 5749 5749 5750 5750 5749 5749 5750 5750 5750 5750 5750 5750 5750 5751 5751 5750 5749 5749 5749 5750 5750 5750 5750 5750 5749 5749 5749 5749 5748 5747 5747 5746 5745 5745 5744 5743 5743 5743 5742 5742 5742 5741 5739 5738 5736 5734 5734 5734
5712 5714 5714 5714 5714 5716 5718 5719 5721 5722 5723 5724 5724 5724 5725 5726 5728 5730 5731 5733 5734 5735 5737 5738 5739 5739 5740 5741 5742 5743 5744 5744 5744 5744 5744 5744 5745 5745 5746 5746 5746 5746 5746 5746 5746 5746 5746 5746 5746 5746 5746 5746 5746 5745 5745 5745 5746 5746 5746 5746 5746 5745 5744 5745 5744 5744 5743 5743 5742 5741 5740 5739 5738 5737 5737 5736 5735 5736 5735 5734 5733 5731 5729 5728 5728
5710 5712 5713 5713 5713 5714 5715 5717 5719 5719 5721 5721 5721 5722 5723 5724 5725 5727 5728 5730 5731 5732 5734 5735 5736 5736 5737 5738 5739 5740 5740 5741 5741 5741 5741 5741 5741 5741 5742 5742 5742 5742 5743 5743 5742 5742 5742 5742 5742 5742 5742 5742 5742 5742 5741 5741 5742 5742 5742 5742 5742 5741 5741 5740 5740 5739 5738 5737 5736 5736 5734 5733 5732 5731 5730 5729 5728 5728 5728 5727 5726 5724 5723 5722 5720
5709 5709 5711 5712 5713 5713 5714 5715 5716 5717 5718 5719 5719 5720 5721 5722 5723 5724 5726 5727 5728 5730 5731 5732 5733 5734 5735 5736 5737 5737 5738 5738 5738 5738 5738 5738 5738 5738 5738 5738 5739 5739 5739 5739 5739 5739 5739 5739 5739 5739 5739 5738 5738 5738 5738 5738 5738 5738 5738 5738 5738 5737 5737 5736 5736 5735 5734 5733 5732 5731 5729 5728 5727 5726 5724 5722 5721 5721 5720 5720 5718 5717 5716 5714 5712
5708 5708 5709 5710 5711 5712 5712 5712 5713 5714 5715 5715 5716 5718 5718 5719 5721 5722 5723 5724 5726 5727 5729 5730 5731 5732 5733 5733 5734 5734 5735 5735 5734 5735 5735 5735 5735 5735 5735 5735 5736 5736 5736 5736 5736 5736 5736 5735 5735 5736 5735 5735 5735 5735 5734 5734 5734 5733 5733 5733 5732 5732 5732 5732 5731 5730 5729 5728 5727 5725 5724 5722 5721 5720 5718 5716 5714 5713 5712 5712 5710 5708 5707 5705 5703
5706 5706 5707 5707 5708 5708 5709 5709 5710 5711 5712 5713 5714 5715 5716 5717 5718 5719 5721 5722 5723 5725 5726 5727 5728 5729 5730 5731 5731 5731 5731 5731 5731 5731 5732 5732 5732 5732 5732 5732 5733 5733 5733 5733 5733 5733 5732 5732 5732 5731 5731 5731 5731 5731 5731 5730 5730 5729 5728 5728 5728 5727 5727 5726 5725 5724 5723 5722 5720 5719 5717 5715 5714 5712 5711 5709 5707 5705 5703 5702 5700 5698 5696 5695 5693
5704 5704 5705 5705 5706 5706 5706 5707 5708 5708 5710 5711 5711 5712 5714 5715 5716 5717 5718 5720 5721 5722 5723 5724 5725 5726 5727 5727 5727 5727 5728 5728 5728 5728 5728 5728 5728 5728 5729 5729 5730 5730 5730 5729 5729 5729 5728 5728 5728 5728 5728 5727 5727 5726 5725 5725 5724 5724 5724 5723 5723 5722 5721 5720 5719 5717 5716 5715 5713 5712 5709 5707 5705 5703 5702 5700 5697 5695 5693 5691 5689 5687 5685 5683 5682
5702 5703 5702 5703 5703 5704 5705 5705 5706 5706 5707 5708 5709 5711 5712 5713 5714 5715 5716 5717 5718 5719 5720 5721 5722 5723 5723 5724 5724 5724 5724 5724 5725 5725 5725 5725 5725 5725 5725 5726 5726 5726 5726 5725 5725 5725 5725 5725 5724 5724 5723 5723 5722 5721 5720 5720 5719 5719 5718 5717 5716 5715 5715 5713 5711 5710 5708 5707 5705 5703 5701 5700 5697 5695 5692 5690 5688 5686 5684 5682 5679 5677 5675 5672 5670
5700 5701 5701 5701 5702 5702 5702 5703 5704 5704 5705 5706 5707 5708 5710 5711 5712 5712 5712 5713 5715 5716 5717 5718 5718 5719 5720 5721 5720 5720 5720 5720 5720 5721 5721 5721 5721 5722 5722 5722 5721 5721 5721 5721 5720 5720 5720 5720 5720 5719 5718 5717 5716 5716 5715 5715 5714 5712 5711 5710 5709 5709 5708 5706 5704 5702 5701 5699 5698 5696 5694 5692 5690 5687 5684 5681 5679 5678 5675 5672 5670 5668 5665 5663 5660
5697 5698 5699 5699 5700 5700 5701 5701 5702 5702 5702 5703 5704 5705 5706 5707 5708 5708 5709 5710 5711 5712 5713 5714 5715 5715 5716 5716 5715 5716 5716 5716 5716 5716 5716 5716 5717 5717 5717 5717 5716 5716 5716 5716 5716 5715 5715 5715 5714 5714 5713 5712 5711 5710 5710 5708 5707 5705 5704 5703 5702 5702 5700 5699 5697 5695 5694 5692 5690 5689 5687 5684 5681 5679 5676 5673 5671 5669 5666 5662 5660 5657 5655 5653 5650
5693 5694 5695 5696 5696 5697 5698 5698 5699 5699 5700 5700 5701 5702 5703 5703 5704 5704 5705 5706 5707 5708 5710 5711 5711 5711 5711 5710 5710 5710 5711 5712 5711 5712 5712 5712 5711 5711 5712 5711 5711 5711 5711 5711 5710 5710 5710 5710 5709 5709 5708 5706 5705 5704 5703 5701 5700 5699 5697 5696 5696 5694 5693 5691 5689 5687 5685 5683 5682 5680 5678 5675 5672 5669 5666 5664 5661 5659 5656 5653 5650 5647 5645 5642 5640
5688 5689 5690 5691 5692 5693 5693 5694 5695 5696 5696 5697 5698 5698 5699 5699 5700 5700 5701 5701 5702 5704 5705 5707 5707 5707 5707 5706 5705 5705 5706 5707 5707 5707 5707 5707 5707 5706 5706 5706 5706 5706 5706 5706 5705 5705 5705 5704 5704 5703 5702 5700 5699 5697 5696 5694 5693 5692 5690 5689 5688 5687 5684 5682 5680 5678 5676 5674 5672 5670 5668 5666 5663 5660 5656 5653 5651 5648 5646 5643 5640 5637 5635 5633 5630
5683 5684 5685 5687 5688 5688 5689 5690 5691 5691 5692 5693 5693 5694 5694 5694 5695 5696 5697 5697 5698 5698 5700 5701 5702 5702 5703 5702 5701 5701 5701 5701 5702 5702 5702 5701 5701 5701 5701 5701 5701 5701 5701 5701 5701 5700 5699 5698 5697 5696 5695 5694 5692 5691 5689 5687 5686 5684 5684 5682 5681 5679 5676 5673 5671 5669 5667 5665 5662 5660 5658 5656 5653 5650 5647 5644 5641 5638 5636 5633 5630 5628 5626 5624 5622
5679 5679 5680 5682 5683 5684 5684 5685 5686 5687 5687 5688 5688 5689 5689 5690 5690 5691 5692 5692 5693 5693 5694 5695 5696 5697 5697 5698 5698 5697 5697 5697 5696 5696 5696 5696 5696 5695 5695 5696 5696 5696 5695 5695 5695 5694 5692 5691 5690 5689 5688 5687 5686 5684 5683 5680 5678 5677 5677 5676 5673 5670 5667 5664 5662 5660 5658 5655 5653 5651 5648 5645 5642 5640 5637 5634 5631 5629 5627 5624 5622 5620 5618 5616 5614
5677 5676 5677 5678 5679 5679 5680 5681 5682 5683 5683 5683 5683 5684 5685 5686 5686 5687 5687 5687 5688 5688 5689 5689 5690 5691 5691 5692 5692 5692 5692 5692 5692 5691 5691 5691 5691 5690 5690 5690 5690 5690 5689 5689 5689 5687 5685 5684 5683 5682 5681 5681 5679 5678 5676 5673 5671 5669 5669 5669 5666 5662 5659 5656 5654 5651 5648 5646 5643 5641 5638 5636 5633 5630 5627 5624 5622 5620 5618 5616 5614 5612 5610 5608 5606
5674 5674 5674 5674 5675 5675 5676 5677 5678 5679 5679 5679 5679 5680 5681 5681 5682 5682 5683 5683 5683 5684 5684 5685 5685 5686 5686 5686 5686 5687 5687 5687 5686 5686 5686 5686 5686 5686 5686 5685 5685 5684 5684 5684 5683 5681 5680 5678 5677 5676 5675 5674 5673 5671 5669 5667 5664 5662 5660 5659 5657 5655 5652 5648 5645 5641 5638 5636 5634 5632 5629 5627 5624 5621 5618 5616 5614 5612 5610 5608 5606 5603 5601 5600 5598
5670 5670 5670 5670 5670 5670 5671 5672 5673 5674 5674 5674 5674 5675 5676 5676 5677 5677 5678 5678 5678 5679 5679 5680 5680 5680 5681 5681 5681 5681 5681 5681 5681 5681 5681 5681 5680 5680 5680 5680 5680 5679 5678 5677 5677 5676 5674 5673 5671 5670 5669 5667 5665 5663 5661 5659 5657 5654 5651 5649 5648 5646 5644 5641 5637 5633 5630 5628 5626 5623 5621 5619 5617 5614 5611 5609 5606 5604 5602 5600 5598 5595 5593 5591 5589
5665 5666 5666 5665 5665 5666 5666 5667 5668 5669 5669 5669 5669 5670 5671 5671 5672 5672 5673 5673 5674 5674 5674 5674 5675 5675 5675 5675 5676 5675 5676 5676 5676 5676 5676 5675 5674 5674 5674 5675 5674 5672 5670 5670 5670 5670 5668 5666 5664 5663 5662 5660 5658 5656 5654 5651 5649 5646 5643 5641 5639 5638 5635 5633 5630 5626 5623 5620 5618 5616 5614 5612 5610 5607 5604 5602 5599 5597 5595 5592 5590 5587 5584 5582 5579
5660 5661 5660 5660 5661 5661 5662 5662 5663 5663 5663 5664 5664 5665 5665 5666 5666 5667 5668 5669 5669 5669 5670 5670 5670 5670 5670 5670 5671 5671 5671 5671 5671 5670 5670 5669 5669 5669 5669 5669 5668 5666 5664 5662 5663 5663 5661 5659 5658 5656 5654 5653 5651 5649 5647 5644 5642 5639 5636 5634 5632 5630 5628 5626 5623 5621 5617 5614 5612 5609 5607 5605 5603 5600 5597 5594 5591 5589 5586 5584 5582 5579 5576 5573 5571
5655 5655 5655 5655 5656 5657 5657 5657 5657 5657 5658 5659 5659 5659 5660 5661 5661 5662 5663 5664 5664 5665 5665 5665 5665 5665 5665 5665 5666 5666 5666 5666 5665 5665 5665 5664 5663 5663 5663 5663 5662 5660 5658 5656 5656 5655 5654 5652 5651 5649 5647 5645 5643 5641 5640 5637 5635 5632 5630 5627 5625 5623 5621 5618 5616 5614 5612 5609 5605 5602 5600 5597 5595 5592 5589 5587 5584 5581 5578 5576 5574 5572 5569 5567 5564
5649 5650 5650 5649 5650 5651 5652 5652 5653 5653 5653 5654 5654 5654 5655 5656 5657 5657 5658 5659 5659 5660 5660 5660 5660 5660 5660 5660 5661 5661 5661 5660 5659 5660 5659 5659 5658 5657 5657 5657 5656 5654 5652 5651 5649 5648 5646 5645 5643 5642 5640 5638 5637 5635 5633 5631 5628 5626 5624 5621 5619 5616 5614 5612 5610 5608 5605 5602 5599 5596 5593 5590 5587 5585 5582 5580 5577 5574 5571 5569 5567 5565 5563 5560 5558
5644 5644 5644 5644 5644 5645 5646 5647 5648 5648 5648 5649 5650 5650 5650 5651 5652 5653 5653 5654 5655 5655 5655 5654 5654 5654 5654 5655 5655 5655 5654 5654 5654 5654 5654 5653 5652 5651 5651 5650 5649 5648 5646 5645 5644 5642 5640 5639 5637 5635 5634 5632 5630 5628 5626 5624 5622 5620 5618 5616 5613 5611 5608 5606 5603 5601 5599 5596 5593 5590 5587 5584 5581 5578 5576 5574 5571 5569 5566 5563 5561 5559 5557 5555 5553
5638 5639 5639 5639 5638 5639 5640 5641 5642 5643 5643 5643 5644 5645 5645 5646 5647 5648 5648 5649 5650 5650 5649 5648 5648 5649 5649 5650 5649 5648 5648 5648 5648 5647 5647 5647 5646 5645 5644 5643 5642 5641 5640 5639 5638 5636 5634 5633 5631 5629 5627 5626 5624 5622 5620 5618 5617 5614 5612 5610 5608 5605 5602 5599 5597 5594 5591 5589 5586 5584 5581 5578 5576 5573 5571 5568 5566 5563 5561 5558 5556 5555 5552 5550 5548
5632 5633 5634 5634 5634 5634 5635 5637 5637 5638 5638 5638 5638 5639 5640 5640 5642 5643 5644 5644 5644 5644 5643 5642 5643 5644 5644 5644 5643 5642 5642 5642 5641 5641 5641 5641 5640 5639 5638 5637 5636 5634 5633 5632 5631 5630 5629 5627 5625 5623 5621 5620 5618 5617 5615 5613 5611 5609 5607 5604 5602 5599 5596 5593 5590 5588 5585 5583 5580 5578 5576 5573 5570 5568 5565 5563 5560 5557 5555 5553 5552 5550 5548 5546 5544
5626 5627 5628 5629 5629 5629 5630 5631 5632 5632 5633 5633 5633 5634 5634 5634 5635 5637 5638 5639 5638 5637 5637 5637 5637 5638 5638 5638 5637 5636 5636 5636 5635 5634 5634 5634 5633 5633 5632 5631 5630 5629 5627 5626 5625 5624 5623 5621 5620 5618 5617 5615 5613 5612 5610 5608 5606 5603 5601 5599 5596 5593 5590 5588 5585 5583 5580 5578 5575 5573 5571 5568 5565 5562 5560 5558 5555 5552 5550 5548 5547 5546 5544 5542 5540
5620 5621 5622 5623 5623 5623 5624 5625 5626 5627 5627 5627 5628 5628 5629 5628 5629 5630 5632 5632 5632 5631 5631 5631 5631 5632 5632 5632 5630 5630 5630 5630 5629 5629 5628 5627 5627 5626 5626 5625 5624 5623 5622 5620 5619 5618 5617 5616 5615 5614 5612 5610 5609 5607 5605 5603 5601 5598 5596 5593 5590 5588 5585 5583 5580 5578 5576 5573 5571 5568 5566 5563 5560 5557 5555 5553 5550 5548 5546 5544 5543 5542 5540 5537 5535
5615 5615 5617 5618 5618 5617 5618 5619 5620 5620 5621 5621 5621 5622 5622 5622 5623 5624 5625 5626 5625 5625 5625 5625 5625 5626 5626 5626 5625 5625 5624 5624 5623 5623 5622 5622 5621 5620 5619 5619 5618 5617 5616 5615 5614 5614 5613 5612 5611 5610 5608 5607 5605 5603 5600 5598 5596 5594 5591 5588 5586 5583 5581 5578 5576 5574 5571 5569 5566 5563 5561 5558 5555 5552 5550 5548 5546 5544 5543 5542 5540 5538 5536 5534 5531
5610 5610 5611 5612 5612 5612 5612 5613 5614 5614 5614 5615 5615 5616 5617 5617 5617 5618 5619 5619 5619 5619 5619 5620 5620 5620 5621 5620 5620 5619 5619 5618 5618 5617 5616 5616 5615 5614 5614 5613 5613 5612 5612 5611 5610 5610 5609 5608 5607 5606 5604 5603 5601 5599 5597 5594 5591 5589 5586 5584 5581 5579 5576 5574 5572 5569 5567 5564 5562 5559 5556 5553 5551 5548 5545 5543 5542 5541 5540 5539 5537 5535 5533 5531 5528
5604 5604 5605 5607 5607 5606 5606 5608 5609 5608 5608 5609 5610 5610 5611 5611 5611 5611 5612 5613 5613 5613 5614 5614 5614 5615 5615 5615 5614 5613 5613 5613 5612 5611 5611 5610 5610 5610 5609 5609 5609 5608 5608 5607 5607 5606 5606 5605 5604 5602 5600 5599 5597 5595 5593 5590 5587 5585 5582 5579 5577 5575 5572 5570 5568 5565 5563 5561 5558 5555 5552 5549 5547 5544 5542 5540 5539 5539 5538 5536 5535 5533 5531 5528 5526
5598 5598 5599 5601 5602 5601 5601 5602 5603 5603 5603 5604 5604 5605 5605 5606 5606 5606 5606 5607 5607 5607 5607 5608 5609 5609 5609 5609 5608 5608 5607 5607 5607 5606 5606 5606 5606 5606 5606 5606 5605 5605 5605 5604 5604 5603 5602 5601 5600 5599 5597 5595 5593 5591 5589 5586 5583 5580 5578 5575 5573 5571 5569 5566 5564 5562 5559 5557 5554 5551 5548 5545 5543 5541 5539 5538 5537 5536 5535 5534 5532 5530 5528 5526 5524
5592 5592 5593 5594 5595 5596 5595 5596 5597 5598 5597 5598 5598 5599 5599 5600 5600 5600 5601 5601 5601 5601 5602 5603 5603 5603 5603 5603 5602 5602 5602 5602 5602 5602 5602 5602 5602 5602 5602 5602 5602 5602 5602 5601 5601 5600 5599 5598 5597 5596 5594 5592 5590 5588 5585 5582 5579 5577 5574 5572 5569 5567 5565 5563 5561 5558 5556 5553 5551 5548 5545 5542 5540 5538 5536 5535 5534 5534 5533 5531 5530 5528 5526 5524 5522
5587 5587 5587 5588 5589 5590 5590 5590 5591 5591 5591 5592 5592 5593 5593 5594 5594 5595 5595 5596 5596 5596 5597 5597 5597 5597 5598 5598 5598 5598 5598 5598 5598 5598 5598 5599 5599 5599 5599 5599 5599 5599 5598 5598 5597 5597 5596 5595 5594 5592 5591 5589 5587 5584 5582 5579 5576 5573 5571 5568 5566 5564 5562 5560 5558 5555 5553 5550 5547 5545 5542 5539 5537 5535 5534 5533 5532 5531 5530 5529 5528 5526 5524 5523 5521
5583 5583 5583 5583 5583 5584 5585 5585 5586 5586 5586 5587 5587 5588 5588 5588 5589 5589 5590 5590 5591 5591 5591 5592 5592 5592 5593 5593 5593 5594 5594 5594 5594 5595 5595 5595 5596 5596 5596 5596 5596 5596 5595 5595 5594 5594 5593 5592 5591 5589 5588 5586 5584 5581 5578 5576 5573 5570 5568 5565 5563 5561 5559 5557 5555 5552 5550 5547 5545 5542 5539 5537 5535 5533 5532 5530 5530 5529 5528 5527 5525 5524 5523 5521 5519
5579 5579 5579 5579 5579 5579 5580 5580 5580 5581 5581 5582 5583 5583 5583 5583 5583 5584 5584 5585 5585 5586 5586 5587 5587 5587 5588 5588 5589 5589 5590 5590 5590 5591 5592 5592 5593 5593 5593 5593 5593 5593 5592 5592 5591 5590 5589 5588 5587 5586 5584 5582 5580 5578 5576 5573 5570 5567 5565 5562 5560 5558 5556 5554 5552 5549 5547 5545 5542 5540 5537 5535 5533 5531 5530 5528 5527 5526 5525 5524 5523 5522 5521 5519 5517
5575 5575 5575 5575 5574 5575 5575 5575 5575 5576 5576 5577 5578 5578 5578 5578 5578 5579 5580 5580 5581 5581 5582 5582 5582 5583 5583 5584 5585 5585 5586 5587 5587 5588 5589 5589 5589 5590 5590 5590 5590 5589 5589 5589 5588 5587 5586 5585 5584 5583 5581 5579 5577 5575 5573 5570 5568 5565 5562 5560 5557 5555 5553 5551 5549 5547 5545 5543 5540 5538 5535 5533 5531 5529 5528 5526 5525 5524 5523 5522 5521 5520 5519 5517 5516
5571 5571 5571 5570 5570 5570 5570 5570 5571 5571 5572 5572 5573 5574 5574 5574 5574 5575 5576 5576 5577 5577 5577 5578 5578 5578 5579 5580 5581 5582 5583 5584 5584 5585 5585 5586 5586 5586 5587 5587 5586 5586 5586 5585 5584 5584 5583 5582 5580 5579 5578 5576 5575 5573 5570 5568 5565 5562 5560 5558 5555 5553 5551 5549 5546 5545 5543 5540 5538 5536 5534 5532 5530 5528 5526 5525 5523 5522 5521 5520 5518 5517 5516 5515 5514